Time,TemperatureF,DewpointF,PressureIn,WindDirection,WindDirectionDegrees,WindSpeedMPH,WindSpeedGustMPH,Humidity,HourlyPrecipIn,Conditions,Clouds,dailyrainin,SolarRadiationWatts/m^2,SoftwareType,DateUTC
2013-06-01 00:12:00,76.0,72.0,-100.00,SE,134,7.0,12.0,88,0.00,,,0.09,0.000000,,2013-06-01 05:12:00,
2013-06-01 00:22:00,76.0,72.0,-100.00,SE,134,7.0,12.0,88,0.00,,,0.09,0.000000,,2013-06-01 05:22:00,
2013-06-01 00:32:00,76.0,72.0,-100.00,SE,134,7.0,12.0,88,0.00,,,0.09,0.000000,,2013-06-01 05:32:00,
2013-06-01 00:42:00,76.0,72.0,-100.00,SE,134,7.0,12.0,88,0.00,,,0.09,0.000000,,2013-06-01 05:42:00,
2013-06-01 00:50:00,76.0,73.0,-100.00,SE,136,5.0,11.0,89,0.00,,,0.09,0.000000,,2013-06-01 05:50:00,
2013-06-01 01:12:00,76.0,73.0,-100.00,SE,136,5.0,11.0,89,0.00,,,0.09,0.000000,,2013-06-01 06:12:00,
2013-06-01 01:22:00,76.0,73.0,-100.00,SE,136,5.0,11.0,89,0.00,,,0.09,0.000000,,2013-06-01 06:22:00,
2013-06-01 01:32:00,76.0,73.0,-100.00,SE,136,5.0,11.0,89,0.00,,,0.09,0.000000,,2013-06-01 06:32:00,
2013-06-01 01:42:00,76.0,73.0,-100.00,SE,136,5.0,11.0,89,0.00,,,0.09,0.000000,,2013-06-01 06:42:00,
2013-06-01 01:50:00,76.0,73.0,-100.00,SSE,150,3.0,10.0,90,0.00,,,0.09,0.000000,,2013-06-01 06:50:00,
2013-06-01 02:11:00,76.0,73.0,-100.00,SSE,150,3.0,10.0,90,0.00,,,0.09,0.000000,,2013-06-01 07:11:00,
2013-06-01 02:22:00,76.0,73.0,-100.00,SSE,150,3.0,10.0,90,0.00,,,0.09,0.000000,,2013-06-01 07:22:00,
2013-06-01 02:32:00,76.0,73.0,-100.00,SSE,150,3.0,10.0,90,0.00,,,0.09,0.000000,,2013-06-01 07:32:00,
2013-06-01 02:42:00,76.0,73.0,-100.00,SSE,150,3.0,10.0,90,0.00,,,0.09,0.000000,,2013-06-01 07:42:00,
2013-06-01 02:50:00,77.0,74.0,-100.00,SSE,153,4.0,7.0,89,0.00,,,0.09,0.000000,,2013-06-01 07:50:00,
2013-06-01 03:11:00,77.0,74.0,-100.00,SSE,153,4.0,7.0,89,0.00,,,0.09,0.000000,,2013-06-01 08:11:00,
2013-06-01 03:21:00,77.0,74.0,-100.00,SSE,153,4.0,7.0,89,0.00,,,0.09,0.000000,,2013-06-01 08:21:00,
2013-06-01 03:32:00,77.0,74.0,-100.00,SSE,153,4.0,7.0,89,0.00,,,0.09,0.000000,,2013-06-01 08:32:00,
2013-06-01 03:42:00,77.0,74.0,-100.00,SSE,153,4.0,7.0,89,0.00,,,0.09,0.000000,,2013-06-01 08:42:00,
2013-06-01 03:50:00,75.0,73.0,-100.00,ESE,109,1.0,7.0,93,0.00,,,0.09,0.000000,,2013-06-01 08:50:00,
2013-06-01 04:12:00,75.0,73.0,-100.00,ESE,109,1.0,7.0,93,0.00,,,0.09,0.000000,,2013-06-01 09:12:00,
2013-06-01 04:21:00,75.0,73.0,-100.00,ESE,109,1.0,7.0,93,0.00,,,0.09,0.000000,,2013-06-01 09:21:00,
2013-06-01 04:33:00,75.0,73.0,-100.00,ESE,109,1.0,7.0,93,0.00,,,0.09,0.000000,,2013-06-01 09:33:00,
2013-06-01 04:42:00,75.0,73.0,-100.00,ESE,109,1.0,7.0,93,0.00,,,0.09,0.000000,,2013-06-01 09:42:00,
2013-06-01 04:50:00,74.0,73.0,-100.00,ENE,73,1.0,2.0,98,0.00,,,0.09,0.000000,,2013-06-01 09:50:00,
2013-06-01 05:13:00,74.0,73.0,-100.00,ENE,73,1.0,2.0,98,0.00,,,0.09,0.000000,,2013-06-01 10:13:00,
2013-06-01 05:22:00,74.0,73.0,-100.00,ENE,73,1.0,2.0,98,0.00,,,0.09,0.000000,,2013-06-01 10:22:00,
2013-06-01 05:33:00,74.0,73.0,-100.00,ENE,73,1.0,2.0,98,0.00,,,0.09,0.000000,,2013-06-01 10:33:00,
2013-06-01 05:42:00,74.0,73.0,-100.00,ENE,73,1.0,2.0,98,0.00,,,0.09,0.000000,,2013-06-01 10:42:00,
2013-06-01 05:50:00,75.0,74.0,-100.00,SSE,159,3.0,6.0,97,0.04,,,0.12,0.000000,,2013-06-01 10:50:00,
2013-06-01 06:11:00,75.0,74.0,-100.00,SSE,159,3.0,6.0,97,0.04,,,0.12,0.000000,,2013-06-01 11:11:00,
2013-06-01 06:21:00,75.0,74.0,-100.00,SSE,159,3.0,6.0,97,0.04,,,0.12,0.000000,,2013-06-01 11:21:00,
2013-06-01 06:32:00,75.0,74.0,-100.00,SSE,159,3.0,6.0,97,0.04,,,0.12,0.000000,,2013-06-01 11:32:00,
2013-06-01 06:42:00,75.0,74.0,-100.00,SSE,159,3.0,6.0,97,0.04,,,0.12,0.000000,,2013-06-01 11:42:00,
2013-06-01 06:50:00,75.0,75.0,-100.00,NNE,33,1.0,5.0,99,0.00,,,0.10,14.000000,,2013-06-01 11:50:00,
2013-06-01 07:12:00,75.0,75.0,-100.00,NNE,33,1.0,5.0,99,0.00,,,0.10,14.000000,,2013-06-01 12:12:00,
2013-06-01 07:21:00,75.0,75.0,-100.00,NNE,33,1.0,5.0,99,0.00,,,0.10,14.000000,,2013-06-01 12:21:00,
2013-06-01 07:32:00,75.0,75.0,-100.00,NNE,33,1.0,5.0,99,0.00,,,0.10,14.000000,,2013-06-01 12:32:00,
2013-06-01 07:42:00,75.0,75.0,-100.00,NNE,33,1.0,5.0,99,0.00,,,0.10,14.000000,,2013-06-01 12:42:00,
2013-06-01 07:50:00,78.0,76.0,-100.00,SE,127,3.0,5.0,94,0.04,,,0.13,90.000000,,2013-06-01 12:50:00,
2013-06-01 08:11:00,78.0,76.0,-100.00,SE,127,3.0,5.0,94,0.04,,,0.13,90.000000,,2013-06-01 13:11:00,
2013-06-01 08:22:00,78.0,76.0,-100.00,SE,127,3.0,5.0,94,0.04,,,0.13,90.000000,,2013-06-01 13:22:00,
2013-06-01 08:32:00,78.0,76.0,-100.00,SE,127,3.0,5.0,94,0.04,,,0.13,90.000000,,2013-06-01 13:32:00,
2013-06-01 08:42:00,78.0,76.0,-100.00,SE,127,3.0,5.0,94,0.04,,,0.13,90.000000,,2013-06-01 13:42:00,
2013-06-01 08:50:00,82.0,76.0,-100.00,SSE,149,7.0,16.0,81,0.00,,,0.13,414.000000,,2013-06-01 13:50:00,
2013-06-01 09:11:00,82.0,76.0,-100.00,SSE,149,7.0,16.0,81,0.00,,,0.13,414.000000,,2013-06-01 14:11:00,
2013-06-01 09:21:00,82.0,76.0,-100.00,SSE,149,7.0,16.0,81,0.00,,,0.13,414.000000,,2013-06-01 14:21:00,
2013-06-01 09:32:00,82.0,76.0,-100.00,SSE,149,7.0,16.0,81,0.00,,,0.13,414.000000,,2013-06-01 14:32:00,
2013-06-01 09:42:00,82.0,76.0,-100.00,SSE,149,7.0,16.0,81,0.00,,,0.13,414.000000,,2013-06-01 14:42:00,
2013-06-01 09:50:00,82.0,74.0,-100.00,SSE,151,7.0,15.0,77,0.00,,,0.13,552.000000,,2013-06-01 14:50:00,
2013-06-01 10:11:00,82.0,74.0,-100.00,SSE,151,7.0,15.0,77,0.00,,,0.13,552.000000,,2013-06-01 15:11:00,
2013-06-01 10:21:00,82.0,74.0,-100.00,SSE,151,7.0,15.0,77,0.00,,,0.13,552.000000,,2013-06-01 15:21:00,
2013-06-01 10:33:00,82.0,74.0,-100.00,SSE,151,7.0,15.0,77,0.00,,,0.13,552.000000,,2013-06-01 15:33:00,
2013-06-01 10:43:00,82.0,74.0,-100.00,SSE,151,7.0,15.0,77,0.00,,,0.13,552.000000,,2013-06-01 15:43:00,
2013-06-01 10:50:00,83.0,74.0,-100.00,South,171,6.0,14.0,75,0.00,,,0.13,545.000000,,2013-06-01 15:50:00,
2013-06-01 11:12:00,83.0,74.0,-100.00,South,171,6.0,14.0,75,0.00,,,0.13,545.000000,,2013-06-01 16:12:00,
2013-06-01 11:23:00,83.0,74.0,-100.00,South,171,6.0,14.0,75,0.00,,,0.13,545.000000,,2013-06-01 16:23:00,
2013-06-01 11:33:00,83.0,74.0,-100.00,South,171,6.0,14.0,75,0.00,,,0.13,545.000000,,2013-06-01 16:33:00,
2013-06-01 11:42:00,83.0,74.0,-100.00,South,171,6.0,14.0,75,0.00,,,0.13,545.000000,,2013-06-01 16:42:00,
2013-06-01 11:50:00,86.0,75.0,-100.00,SSE,155,8.0,15.0,71,0.00,,,0.13,796.000000,,2013-06-01 16:50:00,
2013-06-01 12:12:00,86.0,75.0,-100.00,SSE,155,8.0,15.0,71,0.00,,,0.13,796.000000,,2013-06-01 17:12:00,
2013-06-01 12:22:00,86.0,75.0,-100.00,SSE,155,8.0,15.0,71,0.00,,,0.13,796.000000,,2013-06-01 17:22:00,
2013-06-01 12:32:00,86.0,75.0,-100.00,SSE,155,8.0,15.0,71,0.00,,,0.13,796.000000,,2013-06-01 17:32:00,
2013-06-01 12:42:00,86.0,75.0,-100.00,SSE,155,8.0,15.0,71,0.00,,,0.13,796.000000,,2013-06-01 17:42:00,
2013-06-01 12:50:00,86.0,75.0,-100.00,South,180,8.0,19.0,69,0.00,,,0.08,879.000000,,2013-06-01 17:50:00,
2013-06-01 13:12:00,86.0,75.0,-100.00,South,180,8.0,19.0,69,0.00,,,0.08,879.000000,,2013-06-01 18:12:00,
2013-06-01 13:22:00,86.0,75.0,-100.00,South,180,8.0,19.0,69,0.00,,,0.08,879.000000,,2013-06-01 18:22:00,
2013-06-01 13:32:00,86.0,75.0,-100.00,South,180,8.0,19.0,69,0.00,,,0.08,879.000000,,2013-06-01 18:32:00,
2013-06-01 13:42:00,86.0,75.0,-100.00,South,180,8.0,19.0,69,0.00,,,0.08,879.000000,,2013-06-01 18:42:00,
2013-06-01 13:50:00,87.0,75.0,-100.00,South,169,7.0,14.0,68,0.00,,,0.08,842.000000,,2013-06-01 18:50:00,
2013-06-01 14:11:00,87.0,75.0,-100.00,South,169,7.0,14.0,68,0.00,,,0.08,842.000000,,2013-06-01 19:11:00,
2013-06-01 14:21:00,87.0,75.0,-100.00,South,169,7.0,14.0,68,0.00,,,0.08,842.000000,,2013-06-01 19:21:00,
2013-06-01 14:32:00,87.0,75.0,-100.00,South,169,7.0,14.0,68,0.00,,,0.08,842.000000,,2013-06-01 19:32:00,
2013-06-01 14:42:00,87.0,75.0,-100.00,South,169,7.0,14.0,68,0.00,,,0.08,842.000000,,2013-06-01 19:42:00,
2013-06-01 14:50:00,86.0,75.0,-100.00,South,170,8.0,16.0,69,0.00,,,-99.99,810.000000,,2013-06-01 19:50:00,
2013-06-01 15:12:00,86.0,75.0,-100.00,South,170,8.0,16.0,69,0.00,,,-99.99,810.000000,,2013-06-01 20:12:00,
2013-06-01 15:21:00,86.0,75.0,-100.00,South,170,8.0,16.0,69,0.00,,,-99.99,810.000000,,2013-06-01 20:21:00,
2013-06-01 15:32:00,86.0,75.0,-100.00,South,170,8.0,16.0,69,0.00,,,-99.99,810.000000,,2013-06-01 20:32:00,
2013-06-01 15:42:00,86.0,75.0,-100.00,South,170,8.0,16.0,69,0.00,,,-99.99,810.000000,,2013-06-01 20:42:00,
2013-06-01 15:50:00,84.0,75.0,-100.00,SSE,153,9.0,18.0,75,0.00,,,0.08,545.000000,,2013-06-01 20:50:00,
2013-06-01 16:11:00,84.0,75.0,-100.00,SSE,153,9.0,18.0,75,0.00,,,0.08,545.000000,,2013-06-01 21:11:00,
2013-06-01 16:21:00,84.0,75.0,-100.00,SSE,153,9.0,18.0,75,0.00,,,0.08,545.000000,,2013-06-01 21:21:00,
2013-06-01 16:33:00,84.0,75.0,-100.00,SSE,153,9.0,18.0,75,0.00,,,0.08,545.000000,,2013-06-01 21:33:00,
2013-06-01 16:43:00,84.0,75.0,-100.00,SSE,153,9.0,18.0,75,0.00,,,0.08,545.000000,,2013-06-01 21:43:00,
2013-06-01 16:50:00,85.0,75.0,-100.00,SSE,165,8.0,17.0,71,0.00,,,-99.99,551.000000,,2013-06-01 21:50:00,
2013-06-01 17:12:00,85.0,75.0,-100.00,SSE,165,8.0,17.0,71,0.00,,,-99.99,551.000000,,2013-06-01 22:12:00,
2013-06-01 17:23:00,85.0,75.0,-100.00,SSE,165,8.0,17.0,71,0.00,,,-99.99,551.000000,,2013-06-01 22:23:00,
2013-06-01 17:33:00,85.0,75.0,-100.00,SSE,165,8.0,17.0,71,0.00,,,-99.99,551.000000,,2013-06-01 22:33:00,
2013-06-01 17:42:00,85.0,75.0,-100.00,SSE,165,8.0,17.0,71,0.00,,,-99.99,551.000000,,2013-06-01 22:42:00,
2013-06-01 17:50:00,83.0,75.0,-100.00,SSE,150,8.0,15.0,76,0.00,,,0.08,361.000000,,2013-06-01 22:50:00,
2013-06-01 18:11:00,83.0,75.0,-100.00,SSE,150,8.0,15.0,76,0.00,,,0.08,361.000000,,2013-06-01 23:11:00,
2013-06-01 18:22:00,83.0,75.0,-100.00,SSE,150,8.0,15.0,76,0.00,,,0.08,361.000000,,2013-06-01 23:22:00,
2013-06-01 18:32:00,83.0,75.0,-100.00,SSE,150,8.0,15.0,76,0.00,,,0.08,361.000000,,2013-06-01 23:32:00,
2013-06-01 18:42:00,83.0,75.0,-100.00,SSE,150,8.0,15.0,76,0.00,,,0.08,361.000000,,2013-06-01 23:42:00,
2013-06-01 18:50:00,82.0,74.0,-100.00,SSE,148,7.0,14.0,77,0.00,,,0.08,200.000000,,2013-06-01 23:50:00,
2013-06-01 19:11:00,82.0,74.0,-100.00,SSE,148,7.0,14.0,77,0.00,,,0.08,200.000000,,2013-06-02 00:11:00,
2013-06-01 19:21:00,82.0,74.0,-100.00,SSE,148,7.0,14.0,77,0.00,,,0.08,200.000000,,2013-06-02 00:21:00,
2013-06-01 19:32:00,82.0,74.0,-100.00,SSE,148,7.0,14.0,77,0.00,,,0.08,200.000000,,2013-06-02 00:32:00,
2013-06-01 19:42:00,82.0,74.0,-100.00,SSE,148,7.0,14.0,77,0.00,,,0.08,200.000000,,2013-06-02 00:42:00,
2013-06-01 19:50:00,80.0,75.0,-100.00,South,169,5.0,14.0,84,0.00,,,0.08,60.000000,,2013-06-02 00:50:00,
2013-06-01 20:11:00,80.0,75.0,-100.00,South,169,5.0,14.0,84,0.00,,,0.08,60.000000,,2013-06-02 01:11:00,
2013-06-01 20:21:00,80.0,75.0,-100.00,South,169,5.0,14.0,84,0.00,,,0.08,60.000000,,2013-06-02 01:21:00,
2013-06-01 20:32:00,80.0,75.0,-100.00,South,169,5.0,14.0,84,0.00,,,0.08,60.000000,,2013-06-02 01:32:00,
2013-06-01 20:42:00,80.0,75.0,-100.00,South,169,5.0,14.0,84,0.00,,,0.08,60.000000,,2013-06-02 01:42:00,
2013-06-01 20:50:00,79.0,75.0,-100.00,SE,141,4.0,8.0,88,0.00,,,0.08,1.000000,,2013-06-02 01:50:00,
2013-06-01 21:12:00,79.0,75.0,-100.00,SE,141,4.0,8.0,88,0.00,,,0.08,1.000000,,2013-06-02 02:12:00,
2013-06-01 21:21:00,79.0,75.0,-100.00,SE,141,4.0,8.0,88,0.00,,,0.08,1.000000,,2013-06-02 02:21:00,
2013-06-01 21:32:00,79.0,75.0,-100.00,SE,141,4.0,8.0,88,0.00,,,0.08,1.000000,,2013-06-02 02:32:00,
2013-06-01 21:41:00,79.0,75.0,-100.00,SE,141,4.0,8.0,88,0.00,,,0.08,1.000000,,2013-06-02 02:41:00,
2013-06-01 21:50:00,78.0,74.0,-100.00,SE,130,4.0,7.0,89,0.00,,,0.08,0.000000,,2013-06-02 02:50:00,
2013-06-01 22:11:00,78.0,74.0,-100.00,SE,130,4.0,7.0,89,0.00,,,0.08,0.000000,,2013-06-02 03:11:00,
2013-06-01 22:21:00,78.0,74.0,-100.00,SE,130,4.0,7.0,89,0.00,,,0.08,0.000000,,2013-06-02 03:21:00,
2013-06-01 22:33:00,78.0,74.0,-100.00,SE,130,4.0,7.0,89,0.00,,,0.08,0.000000,,2013-06-02 03:33:00,
2013-06-01 22:43:00,78.0,74.0,-100.00,SE,130,4.0,7.0,89,0.00,,,0.08,0.000000,,2013-06-02 03:43:00,
2013-06-01 22:50:00,77.0,74.0,-100.00,SE,137,2.0,7.0,90,0.00,,,0.08,0.000000,,2013-06-02 03:50:00,
2013-06-01 23:13:00,77.0,74.0,-100.00,SE,137,2.0,7.0,90,0.00,,,0.08,0.000000,,2013-06-02 04:13:00,
2013-06-01 23:23:00,77.0,74.0,-100.00,SE,137,2.0,7.0,90,0.00,,,0.08,0.000000,,2013-06-02 04:23:00,
2013-06-01 23:33:00,77.0,74.0,-100.00,SE,137,2.0,7.0,90,0.00,,,0.08,0.000000,,2013-06-02 04:33:00,
2013-06-01 23:42:00,77.0,74.0,-100.00,SE,137,2.0,7.0,90,0.00,,,0.08,0.000000,,2013-06-02 04:42:00,
2013-06-01 23:50:00,77.0,74.0,-100.00,SE,135,3.0,5.0,91,0.00,,,0.08,0.000000,,2013-06-02 04:50:00,